Weather observations for the past three days for
Otis Air National Guard Base
Metric (Imperial)
Date Time (edt) Wind (kph) Vis. (km) Weather Sky Cond. Temperature (ºC) Relative Humidity Wind Chill (°C) Heat Index (°C) Pressure Precipitation (cm)
Air Dwpt 6 hour altimeter (cm) sea level (mb) 1 hr 3 hr 6 hr
Max. Min.
06 04:56 SW 24 G 46 16.09 Overcast OVC012 14 12 88% 76.05 0.0
06 03:56 SW 39 G 48 16.09 Mostly Cloudy and Breezy BKN010 14 12 88% 76.05 0.0
06 02:56 SW 31 G 43 16.09 Overcast OVC010 14 12 88% 76.05 0.0
06 01:56 SW 24 G 48 16.09 Fair CLR 14 12 88% 76.07 0.0
06 00:56 SW 28 G 41 16.09 Fair CLR 14 12 88% 76.07 0.0
05 23:56 SW 33 G 46 16.09 Fair and Breezy CLR 14 12 88% 76.1 0.0
05 22:56 SW 37 G 48 16.09 Fair and Breezy CLR 15 12 82% 76.07 0.0
05 21:56 SW 30 G 41 16.09 Fair CLR 13 10 82% 76.07 0.0
05 20:56 SW 30 G 43 16.09 Fair CLR 14 8 67% 76.02 0.0
05 19:55 SW 43 16.09 Fair and Windy CLR 14 9 72% 75.95 0.0
05 18:55 SW 39 G 52 16.09 Fair and Breezy CLR 15 10 72% 75.9 0.0
05 17:55 SW 41 G 57 16.09 Fair and Breezy CLR 16 10 68% 75.87 0.0
05 16:55 SW 39 G 52 16.09 Fair and Breezy CLR 17 10 64% 75.87 0.0
05 15:55 S 44 16.09 Fair and Windy CLR 17 11 68% 75.9 0.0
05 14:55 SW 35 16.09 Fair and Breezy CLR 18 11 64% 75.92 0.0
05 13:55 S 35 16.09 Fair and Breezy CLR 18 11 64% 75.95 0.0
05 12:55 SW 35 16.09 Fair and Breezy CLR 18 11 64% 75.97 0.0
05 11:55 SW 28 16.09 Fair CLR 18 11 64% 76 0.0
05 10:56 S 30 16.09 Fair CLR 18 11 64% 76 0.0
05 09:56 SW 31 16.09 Fair CLR 16 11 72% 75.97 0.0
05 08:56 SW 28 16.09 Fair CLR 16 11 72% 75.97 0.0
05 07:56 SW 26 G 33 16.09 Fair CLR 15 11 77% 76 0.0
05 06:56 S 19 16.09 Fair CLR 12 9 82% 75.97 0.0
05 05:56 SW 17 16.09 Fair CLR 10 8 88% 8 75.97 0.0
05 04:56 SW 13 16.09 Fair CLR 9 8 94% 7 75.97 0.0
05 03:56 S 11 16.09 Fair CLR 10 8 88% 9 76 0.0
05 02:56 SW 19 16.09 Fair CLR 11 8 82% 75.97 0.0
05 01:56 SW 19 16.09 Fair CLR 11 8 82% 76 0.0
05 00:56 SW 19 16.09 Fair CLR 11 8 82% 76 0.0
04 23:56 SW 19 16.09 Fair CLR 11 8 82% 76.02 0.0
04 22:56 SW 19 16.09 Fair CLR 11 8 82% 76.02 0.0
04 21:56 SW 24 16.09 Fair CLR 11 8 82% 76.02 0.0
04 20:57 SW 19 16.09 Fair CLR 12 7 72% 75.95 0.0
04 20:56 SW 19 16.09 NULL NULL 12 7 72% 75.95 0.0
04 19:56 SW 26 G 41 16.09 Fair CLR 12 5 63% 75.9 0.0
04 18:56 SW 43 G 54 0.00 Windy NULL 13 4 55% 75.82 0.0
04 17:56 SW 35 G 41 16.09 Fair and Breezy CLR 14 4 51% 75.84 0.0
04 16:56 SW 41 G 54 16.09 Fair and Breezy CLR 16 4 45% 75.82 0.0
04 15:56 SW 43 G 56 16.09 Fair and Windy CLR 17 3 39% 75.79 0.0
04 14:56 SW 44 G 67 16.09 Fair and Windy CLR 17 3 39% 75.84 0.0
04 13:56 SW 46 G 56 16.09 Fair and Windy CLR 17 6 49% 75.82 0.0
04 12:56 SW 43 G 52 16.09 Fair and Windy CLR 17 5 45% 75.84 0.0
04 11:56 SW 33 G 54 16.09 Fair and Breezy CLR 17 4 42% 75.87 0.0
04 10:56 SW 31 G 46 16.09 Fair CLR 15 4 48% 75.92 0.0
04 09:56 SW 30 G 37 16.09 Fair CLR 14 6 59% 75.95 0.0
04 08:56 SW 30 G 41 16.09 Fair CLR 13 4 55% 75.95 0.0
04 07:56 SW 30 G 41 16.09 Fair CLR 12 5 63% 75.97 0.0
04 06:56 SW 11 16.09 Fair CLR 9 6 82% 8 75.97 0.0
04 05:45 SW 13 16.09 Partly Cloudy SCT080 9 4 71% 7 75.92 0.0
04 04:45 SW 13 16.09 Mostly Cloudy BKN075 9 5 76% 7 75.9 0.0
04 03:55 W 15 16.09 Mostly Cloudy BKN070 8 4 76% 6 75.9 0.0
04 02:45 W 15 16.09 Fair CLR 8 4 76% 6 75.9 0.0
04 01:45 SW 17 16.09 Fair CLR 7 4 81% 4 75.9 0.0
04 00:45 SW 11 16.09 Fair CLR 4 1 81% 2 75.87 0.0
03 23:45 Calm 16.09 Fair CLR 4 -1 70% 75.87 0.0
03 22:45 Calm 16.09 Fair CLR 4 -2 65% 75.84 0.0
03 21:45 Calm 16.09 Fair CLR 6 -2 57% 75.84 0.0
03 20:45 NW 9 16.09 A Few Clouds FEW075 9 -4 40% 8 75.77 0.0
03 19:45 NW 19 G 31 16.09 Overcast OVC080 11 -4 35% 75.69 0.0
03 18:56 NW 19 G 31 16.09 Overcast OVC080 11 -3 38% 75.62 0.0
03 17:56 NW 19 16.09 Overcast OVC075 12 -3 35% 75.54 0.0
03 16:56 NW 15 16.09 Overcast OVC075 12 -1 41% 75.51 0.0
03 15:56 NW 26 G 39 16.09 Overcast SCT060 OVC080 12 -1 41% 75.46 0.0
03 13:56 NW 30 G 48 16.09 Overcast BKN033 OVC050 11 2 54% 75.44 0.0
03 12:56 NW 28 G 37 16.09 Overcast BKN029 OVC038 9 3 66% 6 75.44 0.0
03 11:56 NW 28 G 43 16.09 Overcast BKN027 BKN032 OVC065 10 4 67% 7 75.41 0.0
03 10:56 NW 22 G 37 16.09 Mostly Cloudy SCT030 BKN037 BKN048 9 3 66% 6 75.39 0.0
03 09:56 NW 20 16.09 Mostly Cloudy BKN026 10 4 67% 8 75.39 0.0
03 08:56 NW 20 G 28 16.09 Mostly Cloudy SCT016 BKN120 8 5 82% 5 75.41 0.0
03 07:56 NW 11 16.09 Overcast FEW024 OVC110 7 6 93% 5 75.49 0.0
03 06:56 NW 11 16.09 Overcast SCT016 OVC085 7 6 93% 5 75.49 0.0
03 05:55 NW 7 16.09 Light Rain OVC048 7 6 93% 6 75.51 0.0
Date Time (edt) Wind (kph) Vis. (km) Weather Sky Cond. Air Dwpt Max. Min. Relative Humidity Wind Chill (°C) Heat Index (°C) altimeter (cm) sea level (mb) 1 hr 3 hr 6 hr
6 hour
Temperature (ºC) Pressure Precipitation (cm)